Other Public Products
Issued by NWS Grand Forks, ND

Home | Current Version | Previous Version | Graphics & Text | Print | Product List | Glossary On
Versions: 1 2 3 4 5 6 7 8 9 10 11 12 13 14 15 16 17 18 19 20 21 22 23 24 25 26 27 28 29 30 31 32 33 34 35 36 37 38 39 40 41 42 43 44 45 46 47 48 49 50
000
FPUS83 KFGF 262231
OPUFGF
PRAIRIE TO PINES WEATHER ROUNDUP
NATIONAL WEATHER SERVICE EASTERN NORTH DAKOTA/GRAND FORKS ND
500 PM CDT TUE AUG 26 2014

 **SATELLITE DATA USED TO AUGMENT SKY COVER AT AUTOMATED STATIONS**
 *****  WEATHER ACROSS EASTERN NORTH DAKOTA  *****

CITY           SKY/WX    TMP DP  RH WIND       PRES   REMARKS
GRAND FORKS    PTSUNNY   67  51  56 SW5       30.14S
GRAND FORKS AF PTSUNNY   66  53  61 CALM      30.14F
GRAND CITY NWS   N/A     66 N/A N/A W2          N/A
BUXTON           N/A     66  52  61 S3          N/A
DEVILS LAKE    PTSUNNY   68  48  49 SW7       30.12F
FARGO          CLOUDY    69  49  48 CALM      30.15S
WAHPETON ARPT  MOCLDY    64  48  55 CALM      30.17F
$$

 *****  WEATHER ACROSS CENTRAL AND WESTERN NORTH DAKOTA  *****

CITY           SKY/WX    TMP DP  RH WIND       PRES   REMARKS
JAMESTOWN      LGT RAIN  61  54  77 W7        30.16F
BISMARCK       LGT RAIN  59  54  83 CALM      30.17F
MINOT          MOSUNNY   69  43  38 SW6       30.12S
MINOT AFB      MOSUNNY   71  48  45 S2        30.11F
GARRISON         N/A     66  49  54 SW5       30.14F
WILLISTON      SUNNY     71  43  36 CALM      30.11F
DICKINSON      PTSUNNY   64  53  67 S10       30.13F
HETTINGER      PTSUNNY   65  52  62 VRB7      30.15F
$$

 *****  OTHER OBSERVATIONS NORTHEAST NORTH DAKOTA  *****

CITY           SKY/WX    TMP DP  RH WIND       PRES   REMARKS
WALHALLA         N/A     66  45  45 NW5       30.13S
LANGDON        FAIR      68  45  42 W7        30.13F
CAVALIER       FAIR      66  46  48 CALM      30.12F
GRAFTON        FAIR      66  46  48 NW3       30.13S
CANDO          FAIR      66  46  48 W8        30.14S
FORT TOTTEN    NOT AVBL
ROLLA          FAIR      64  45  48 W8        30.15S
RUGBY          FAIR      66  48  52 W6        30.13F
 ***** THE ABOVE OBSERVATIONS ARE NON NWS ARE NOT QUALITY
        CONTROLLED AND MAY MIS-REPORT RAIN FOR SNOW...
$$

 *****  OTHER OBSERVATIONS SOUTHEAST NORTH DAKOTA *****

CITY           SKY/WX    TMP DP  RH WIND       PRES   REMARKS
COOPERSTOWN    NOT AVBL
VALLEY CITY    LGT RAIN  61  59  94 W5        30.17S
OAKES            N/A     64  55  72 SW5       30.17F
GWINNER        MOCLDY    66  54  63 SW6       30.18F
BUFFALO          N/A     63  52  65 CALM        N/A
WYNDMERE       NOT AVBL
 ***** THE ABOVE OBSERVATIONS ARE NON NWS ARE NOT QUALITY
       CONTROLLED AND MAY MIS-REPORT RAIN FOR SNOW...
$$

  *****  WEATHER ACROSS NORTHERN MINNESOTA  *****

CITY           SKY/WX    TMP DP  RH WIND       PRES   REMARKS
FLAG ISLAND    PTSUNNY   59  48  67 W10G16    30.13S
WARROAD        CLOUDY    57  48  72 W6        30.17R
ROSEAU         MOSUNNY   61  48  63 W9        30.16F
HALLOCK        SUNNY     64  48  55 CALM      30.14S
THF RVR FALLS  MOSUNNY   64  46  52 W7        30.16S
HALSTAD          N/A     67  46  47 CALM        N/A
FOSSTON        PTSUNNY   64  46  52 W9        30.18R
BAUDETTE       CLOUDY    58  47  66 VRB6      30.16S
WASKISH        CLOUDY    59  48  67 W6        30.17S
CROOKSTON      SUNNY     66  50  55 W6        30.16S
$$
  *****  WEATHER ACROSS CENTRAL AND WEST MINNESOTA  *****

CITY           SKY/WX    TMP DP  RH WIND       PRES   REMARKS
BEMIDJI        PTSUNNY   63  48  57 W7        30.16S
PARK RAPIDS    CLOUDY    64  49  57 NW5       30.17R
WADENA         CLOUDY    64  52  63 NW7       30.16F
DETROIT LAKES  CLOUDY    64  50  59 NW7       30.18S
MOORHEAD       PTSUNNY   68  54  60 CALM      30.16F
FERGUS FALLS   PTSUNNY   64  48  55 NW6       30.16F
ELBOW LAKE     FAIR      65  53  65 N3        30.17S
MORRIS MN      PTSUNNY   66  52  59 NW3       30.17F
STAPLES        CLOUDY    66  50  55 NW6       30.17S
WHEATON        PTSUNNY   63  52  67 CALM      30.19F
$$
  *****  WEATHER ELSEWHERE ACROSS MINNESOTA  *****

CITY           SKY/WX    TMP DP  RH WIND       PRES   REMARKS
DULUTH         MOSUNNY   67  48  50 NW14      30.13R
INTRNTL FALLS  CLOUDY    57  48  72 W7        30.15S
ELY            PTSUNNY   61  46  59 NW12      30.12F
CLOQUET        MOSUNNY   66  48  52 NW10      30.14R
BRAINERD       PTSUNNY   65  50  58 N7        30.16S
HIBBING        PTSUNNY   63  48  58 NW9       30.15R
ALEXANDRIA     CLOUDY    65  52  62 W5        30.18F
SAINT CLOUD    PTSUNNY   72  52  49 NW5       30.15R
MINNEAPOLIS    PTSUNNY   74  49  41 NW8       30.15S
$$

  *****  WEATHER ACROSS SOUTH DAKOTA  *****

CITY           SKY/WX    TMP DP  RH WIND       PRES   REMARKS
SIOUX FALLS    PTSUNNY   72  57  59 E6        30.16F
BROOKINGS      NOT AVBL
WATERTOWN      CLOUDY    65  54  67 S3        30.18S
HURON          PTSUNNY   68  52  56 E5        30.14F
SISSETON         N/A     66  53  63 CALM      30.17S
ABERDEEN       PTSUNNY   61  52  72 S5        30.18F
MITCHELL       MOSUNNY   74  57  55 E5        30.14F
PIERRE         MOSUNNY   72  53  51 SE14      30.11F
MOBRIDGE       CLOUDY    64  54  69 E8        30.12F
RAPID CITY     MOSUNNY   76  59  55 NE7       30.10F
$$

  *****  SOME WEATHER IN NEARBY STATES *****

CITY           SKY/WX    TMP DP  RH WIND       PRES   REMARKS
GLASGOW MT     SUNNY     73  50  44 VRB7      30.07F
GREAT FALLS MT SUNNY     77  41  27 SE9       30.07F
CHEYENNE WY    PTSUNNY   73  50  44 S14       30.22R
SCOTTSBLUFF NE MOSUNNY   88  53  30 SE10      30.07F
OMAHA NE       PTSUNNY   77  65  66 E7        30.11F
DES MOINES IA  MOSUNNY   81  62  52 VRB3      30.11F
DAVENPORT IA   SUNNY     80  65  59 NE6       30.10F
CHICAGO IL     PTSUNNY   85  66  53 N6        30.07F
EAU CLAIRE WI  SUNNY     72  52  49 W5        30.13F
LA CROSSE WI   SUNNY     75  54  47 N7        30.13S
$$

  *****  SOME NATIONAL WEATHER *****

CITY           SKY/WX    TMP DP  RH WIND       PRES   REMARKS
LA GUARDIA NY  MOSUNNY   81  61  50 S13       30.07F
RALEIGH NC     PTSUNNY   80  60  50 NE9       30.09F
ATLANTA GA     MOSUNNY   85  57  38 E10       30.06S
NEW ORLEANS LA CLOUDY    87  69  54 E8        29.95F HX  91
OKLAHOMA CITY  MOSUNNY   96  63  33 SE14      30.00F HX  97
ALBUQUERQUE NM PTSUNNY   79  51  37 SW13      30.20F
SALT LAKE CITY CLOUDY    76  47  35 N9        30.07F
LOS ANGELES CA MOSUNNY   74  60  61 W14       29.96F
BOISE ID       SUNNY     80  47  31 NW7       30.07F
SEATTLE WA     SUNNY     86  51  29 NW7       30.03F
$$

*** WEATHER ACROSS MANITOBA...SASKATCHEWAN AND ONTARIO ***
                ***ONTARIO***

CITY           SKY/WX    TMP DP  RH WIND       PRES   REMARKS
GERALDTON      PTSUNNY   61  52  72 W8        29.99S
THUNDER BAY    CLOUDY    63  50  63 NW10      30.06R
SIOUX LOOKOUT  CLOUDY    55  46  71 NW12G17   30.09R
TORONTO        PTSUNNY   88  70  55 SW15G23   29.98F HX  92
BIG TROUT LK     N/A     48  46  93 MISG      30.03S
PICKLE LAKE    CLOUDY    54  46  76 W7        30.04R
DRYDEN         PTSUNNY   57  46  67 W9        30.10S
KENORA         PTSUNNY   59  46  63 W7        30.12S
$$
                *** MANITOBA***

CITY           SKY/WX    TMP DP  RH WIND       PRES   REMARKS
BRANDON        PTSUNNY   66  46  48 W10       30.12S
DAUPHIN        SUNNY     66  46  48 W6        30.09F
ISLAND LAKE    PTSUNNY   52  48  87 N9        30.09R
PILOT MOUND      N/A     66  50  55 NW5         N/A
THE PAS        MOSUNNY   66  45  45 S9        30.02F
THOMPSON       PTSUNNY   57  46  67 S8        30.05S
WINNIPEG       MOSUNNY   64  46  52 NW7       30.14S
LYNN LAKE      SUNNY     64  43  45 MISG      29.93F
CHURCHILL      MOSUNNY   61  39  44 S15       29.98F
GILLAM         MOSUNNY   55  41  58 S7        30.07S
$$
                ***SASKATCHEWAN***

CITY           SKY/WX    TMP DP  RH WIND       PRES   REMARKS
ESTEVAN        MOSUNNY   68  46  45 SW2       30.12F
KINDERSLEY     MOSUNNY   81  45  28 SW9G17    29.96F
LLOYDMINSTER   PTSUNNY   75  48  38 SW12      29.89F
PRINCE ALBERT  MOSUNNY   75  50  41 SW16G22   29.94F
REGINA         MOSUNNY   68  48  49 SW6       30.06F
YORKTON        SUNNY     68  48  49 SW8       30.07F



USA.gov is the U.S. government's official web portal to all federal, state and local government web resources and services.